Regional Weather Roundup
Issued by NWS

Home | Current Version | Previous Version | Graphics & Text | Print | Product List | Glossary On
Versions: 1 2 3 4 5 6 7 8 9 10 11 12 13 14 15 16 17 18 19 20 21 22 23 24 25 26 27 28
000
ASUS45 KBOU 262307
RWRCO

WEATHER ROUNDUP FOR COLORADO
NATIONAL WEATHER SERVICE DENVER/BOULDER CO
500 PM MDT FRI AUG 26 2016

NOTE: "FAIR" INDICATES FEW OR NO CLOUDS BELOW 12000 FEET WITH NO
SIGNIFICANT WEATHER AND/OR OBSTRUCTIONS TO VISIBILITY.

COZ001>005-013-030-031-270000-
...NORTHWEST COLORADO...

CITY           SKY/WX    TMP DP  RH WIND       PRES   REMARKS
CRAIG          FAIR      73  30  20 S13G20    30.11S
HAYDEN         FAIR      70  28  21 SW13G23   30.14F
MEEKER         FAIR      68  39  34 E9        30.14F
MOUNT WERNER   NOT AVBL
STEAMBOAT SPGS FAIR      69  33  26 SE10      30.17S
WALDEN         PTSUNNY   64  30  27 SW16G23   30.23S
$$

COZ006>008-011-270000-
...WEST CENTRAL VALLEYS...

CITY           SKY/WX    TMP DP  RH WIND       PRES   REMARKS
GRAND JUNCTION FAIR      78  48  34 CALM      30.05F
MONTROSE       FAIR      74  42  31 N8        30.12F
EAGLE          MOSUNNY   72  37  28 SW22G29   30.17S
RIFLE          FAIR      79  37  22 W12       30.08F
DELTA          FAIR      80  40  24 SW9       30.08F
NUCLA          FAIR     N/A N/A N/A W5        30.17F
$$

COZ017>023-064>068-270000-
...SOUTHWEST COLORADO...

CITY           SKY/WX    TMP DP  RH WIND       PRES   REMARKS
DURANGO        FAIR      73  40  30 W10       30.19F
CORTEZ         FAIR      73  48  41 CALM      30.16F
PAGOSA SPRINGS FAIR      65  45  48 E5        30.28F
TELLURIDE      PTSUNNY   55  44  65 E6        30.37F
WOLF CREEK PAS FAIR      41  39  93 SW16G22   30.53F
$$

COZ009-010-012-014-032>034-037-058>063-270000-
...CENTRAL COLORADO...

CITY           SKY/WX    TMP DP  RH WIND       PRES   REMARKS
ASPEN          FAIR      65  37  35 VRB5      30.24F
BUENA VISTA    PTSUNNY   62  34  34 W16G23    30.24S
COPPER MTN     PTSUNNY   46  30  53 NW12G17   30.49S
BERTHOUD PASS  FAIR      39  27  60 NW18G26   30.49F
COTTONWOOD PAS FAIR      59  32  36 NW6       30.36S
GUNNISON       FAIR      66  36  32 CALM      30.25F
KREMMLING      CLOUDY    55  37  50 N14G21    30.26S
LEADVILLE      FAIR      55  25  31 W14G24    30.36F
MONARCH PASS   FAIR      50  27  40 SW15G26   30.59S
SALIDA         FAIR      71  33  25 N6        30.27F
SUNLIGHT       FAIR      59  34  38 CALM      30.45S
WILKERSON PASS PTSUNNY   50  27  40 W3        30.46S
$$

COZ069>075-270000-
...SAN LUIS VALLEY/SANGRE DE CRISTO MOUNTAINS...

CITY           SKY/WX    TMP DP  RH WIND       PRES   REMARKS
ALAMOSA        PTSUNNY   67  36  31 CALM      30.23F
LA VETA PASS   NOT AVBL
SAGUACHE       FAIR      68  39  34 SW14      30.24F
$$

COZ035-036-038>040-270000-
...NORTHERN COLORADO FRONT RANGE...

CITY           SKY/WX    TMP DP  RH WIND       PRES   REMARKS
DENVER INTL AP PTSUNNY   75  38  26 N12       30.06S
DMNS CITY PARK   N/A     72  45  37 W3        30.07R
AURORA         PTSUNNY   74  37  25 W3        30.08S
FRONT RANGE AP PTSUNNY   81  37  21 N7        30.08S
ERIE MUNI ARPT FAIR      77  39  26 S7        30.05S
BOULDER MUN AP FAIR      75  34  22 SW12G17   30.05R
CENTENNIAL     PTSUNNY   75  33  21 N6        30.09S
BROOMFIELD     PTSUNNY   72  50  46 SW7       30.10R
FORT COLLINS   FAIR      79  43  27 S13       30.00F
LONGMONT       FAIR      81  40  22 S7        30.04F
$$

COZ041-046-047-076>085-087-088-270000-
...PIKES PEAK/PALMER DIVIDE AND SOUTHERN FOOTHILLS...

CITY           SKY/WX    TMP DP  RH WIND       PRES   REMARKS
COLO. SPRINGS  FAIR      72  45  37 S10G17    30.14F
A. F. ACADEMY  FAIR      70  42  35 VRB2      30.13F
SCHRIEVER AFB  NOT AVBL
ELLICOTT       NOT AVBL
FALCON         FAIR      69  38  32 SE9       30.18F
FORT CARSON    MOSUNNY   69  50  50 E3        30.11S
LIMON          FAIR      71  46  40 S12       30.08F
MONUMENT HILL  FAIR      68  36  30 CALM      30.18F
TRINIDAD       FAIR      75  46  35 E10       30.10F
$$

COZ042>045-048>051-090-091-270000-
...NORTHEAST COLORADO...

CITY           SKY/WX    TMP DP  RH WIND       PRES   REMARKS
GREELEY ARPT   FAIR      79  45  29 S5        30.03S
AKRON          FAIR      72  51  47 NE12      30.07R
BURLINGTON     FAIR      75  56  51 SE24      30.03F
WRAY           FAIR      59  55  88 NE12      30.05S
STERLING       FAIR      73  55  53 E8        30.04R
HOLYOKE        FAIR      61  57  88 E7        30.09R
FORT MORGAN    FAIR      75  46  35 E15       30.04F
$$

COZ086-089-092>099-270000-
...SOUTHEAST COLORADO...

CITY           SKY/WX    TMP DP  RH WIND       PRES   REMARKS
PUEBLO         FAIR      82  42  24 SE6       30.03S
LA JUNTA       FAIR      80  50  34 VRB3      30.02F
LAMAR          FAIR      84  50  30 VRB6      29.98F
SPRINGFIELD      N/A     64  57  78 W25G33    30.06R
$$




USA.gov is the U.S. government's official web portal to all federal, state and local government web resources and services.